EW8409 Weather Reports


Display with metric or nautical units.
time (UTC)temp
F
wind
direction
speed
MPH
gust
MPH
rain 1hr
in
rain 24hr
in
rain mn
in
humidity
%
barometer
mb
20260831094537 63 166 0.0 0.0 0.00 0.03 0.00 97 1018.3
20260831093038 63 166 0.0 0.0 0.00 0.03 0.00 97 1018.4
20260831091535 63 166 0.0 0.0 0.00 0.03 0.00 97 1018.4
20260831090034 63 166 0.0 0.0 0.00 0.03 0.00 97 1018.4
20260831084537 62 166 0.0 0.0 0.00 0.03 0.00 97 1018.5
20260831083030 62 166 0.0 0.0 0.00 0.03 0.00 97 1018.6
20260831081541 62 166 0.0 0.0 0.00 0.03 0.00 97 1018.7
20260831080029 62 166 0.0 0.0 0.00 0.03 0.00 97 1018.6
20260831074531 62 166 0.0 0.0 0.00 0.03 0.00 97 1018.6
20260831073029 62 166 0.0 0.0 0.00 0.03 0.00 97 1018.6
20260831071532 62 166 0.0 0.0 0.00 0.03 0.00 96 1018.7
20260831070033 62 166 0.0 0.0 0.00 0.03 0.00 96 1018.7
20260831064528 62 166 0.0 0.0 0.00 0.03 0.00 96 1018.6
20260831063026 62 166 0.0 0.0 0.00 0.03 0.00 96 1018.8
20260831061525 62 166 0.0 0.0 0.00 0.03 0.00 96 1018.6
20260831060024 62 166 0.0 0.0 0.00 0.03 0.00 96 1018.8
20260831054522 62 166 0.0 0.0 0.00 0.03 0.00 96 1018.7
20260831053022 62 166 0.0 0.0 0.00 0.03 0.00 96 1018.8
20260831051533 62 166 0.0 0.0 0.00 0.03 0.00 96 1018.9
20260831050019 62 166 0.0 0.0 0.00 0.03 0.00 96 1019.0
20260831044517 62 166 0.0 0.0 0.00 0.03 0.00 96 1019.2
20260831043016 61 166 0.0 0.0 0.00 0.03 0.00 96 1019.3
20260831041522 61 166 0.0 0.0 0.00 0.03 0.00 96 1019.2
20260831040034 62 166 0.0 0.0 0.00 0.03 0.00 96 1019.1
20260831034510 62 166 0.0 0.0 0.00 0.03 0.03 95 1019.2
20260831033012 62 166 0.0 0.0 0.00 0.03 0.03 95 1019.2
20260831031508 62 166 0.0 0.0 0.00 0.03 0.03 95 1019.1
20260831030010 62 166 0.0 0.0 0.00 0.03 0.03 95 1019.1
20260831024506 63 166 0.0 0.0 0.00 0.03 0.03 95 1019.1
20260831023006 63 166 0.0 0.0 0.00 0.03 0.03 94 1019.1
20260831021517 63 166 0.0 0.0 0.00 0.03 0.03 94 1019.2
20260831020003 63 165 0.0 0.0 0.00 0.03 0.03 94 1019.2
20260831014502 63 166 0.0 0.0 0.00 0.03 0.03 94 1019.4
20260831013002 63 166 0.0 0.0 0.00 0.03 0.03 93 1019.4
20260831011504 63 166 0.0 0.0 0.00 0.03 0.03 93 1019.2
20260831010131 64 166 0.0 0.0 0.00 0.03 0.03 92 1019.1
20260831004558 64 166 0.0 0.0 0.00 0.03 0.03 91 1018.9
20260831003056 64 166 0.0 0.0 0.00 0.03 0.03 91 1018.5
20260831001605 65 166 0.0 0.0 0.00 0.03 0.03 90 1018.4
20260831000054 65 166 0.0 0.0 0.00 0.03 0.03 89 1018.3
20260830234554 66 166 0.0 0.0 0.00 0.03 0.03 87 1018.1
20260830233053 67 166 0.0 0.0 0.00 0.03 0.03 86 1018.0
20260830231554 68 165 0.0 0.0 0.00 0.03 0.03 85 1018.1
20260830230054 68 166 0.0 0.0 0.00 0.03 0.03 84 1018.1
20260830224601 68 156 0.0 0.0 0.00 0.03 0.03 84 1018.2
20260830223051 68 172 0.0 0.0 0.00 0.03 0.03 84 1018.2
20260830221551 68 106 0.0 0.0 0.00 0.03 0.03 85 1018.2
20260830220101 68 174 0.0 0.0 0.00 0.03 0.03 85 1018.2
20260830214600 69 205 0.0 0.0 0.00 0.03 0.03 87 1018.0
20260830213049 69 145 0.0 0.0 0.00 0.03 0.03 87 1018.0
20260830211549 69 153 0.0 0.0 0.00 0.03 0.03 87 1017.9
20260830210048 69 181 0.0 1.0 0.00 0.03 0.03 87 1018.1
20260830204545 69 170 0.0 0.0 0.00 0.03 0.03 87 1018.2
20260830203047 69 155 0.0 0.0 0.00 0.03 0.03 88 1018.2
20260830201545 69 219 0.0 0.0 0.00 0.03 0.03 89 1018.2
20260830200044 69 169 0.0 0.0 0.00 0.03 0.03 90 1018.1
20260830194543 68 133 0.0 1.0 0.00 0.03 0.03 91 1018.2
20260830193042 68 158 0.0 1.0 0.00 0.03 0.03 93 1018.3
20260830191542 67 148 0.0 0.0 0.00 0.03 0.03 94 1018.4
20260830190042 67 146 0.0 0.0 0.01 0.03 0.03 94 1018.7
20260830184541 67 140 0.0 0.0 0.01 0.03 0.03 94 1018.8
20260830183040 67 140 0.0 0.0 0.01 0.03 0.03 94 1018.7
20260830181547 67 175 0.0 0.0 0.01 0.03 0.03 93 1018.7
20260830180053 67 164 0.0 0.0 0.00 0.02 0.02 93 1019.0
20260830174549 66 181 0.0 0.0 0.01 0.02 0.02 93 1018.9
20260830173057 66 148 0.0 0.0 0.01 0.02 0.02 92 1018.9
20260830171550 66 147 0.0 0.0 0.02 0.02 0.02 92 1019.0
20260830170038 66 143 0.0 0.0 0.02 0.02 0.02 91 1019.1
20260830164535 66 167 0.0 0.0 0.01 0.01 0.01 89 1019.1
20260830163034 67 150 0.0 0.0 0.01 0.01 0.01 86 1019.1
20260830161541 68 194 0.0 0.0 0.00 0.00 0.00 85 1019.0
20260830160034 68 165 0.0 0.0 0.00 0.00 0.00 84 1019.0
20260830154533 67 182 0.0 0.0 0.00 0.00 0.00 86 1019.1
20260830153033 68 155 0.0 0.0 0.00 0.00 0.00 85 1019.0
20260830151531 67 155 0.0 0.0 0.00 0.00 0.00 83 1018.8
20260830150030 68 155 0.0 0.0 0.00 0.00 0.00 83 1018.8
20260830144533 68 155 0.0 0.0 0.00 0.00 0.00 79 1018.8
20260830143030 69 155 0.0 0.0 0.00 0.00 0.00 79 1018.9
20260830141529 69 155 0.0 0.0 0.00 0.00 0.00 76 1018.6
20260830140028 69 155 0.0 0.0 0.00 0.00 0.00 77 1018.6
20260830134539 69 155 0.0 0.0 0.00 0.00 0.00 74 1018.4
20260830133030 69 155 0.0 0.0 0.00 0.00 0.00 73 1018.3
20260830131525 69 176 0.0 0.0 0.00 0.00 0.00 73 1018.3
20260830130023 68 162 0.0 0.0 0.00 0.00 0.00 73 1018.3
20260830124523 68 162 0.0 0.0 0.00 0.00 0.00 73 1018.3
20260830123022 68 158 0.0 0.0 0.00 0.00 0.00 73 1018.5
20260830121521 68 166 0.0 0.0 0.00 0.00 0.00 72 1018.4
20260830120022 68 206 0.0 0.0 0.00 0.00 0.00 72 1018.3
20260830114521 68 155 0.0 0.0 0.00 0.00 0.00 71 1018.5
20260830113024 67 169 0.0 1.0 0.00 0.00 0.00 71 1018.7
20260830111519 67 173 0.0 0.0 0.00 0.00 0.00 72 1018.6
20260830110019 67 158 0.0 0.0 0.00 0.00 0.00 70 1018.5
20260830104518 68 191 0.0 0.0 0.00 0.00 0.00 70 1018.4
20260830103018 68 181 0.0 0.0 0.00 0.00 0.00 69 1018.5
20260830101516 68 179 0.0 0.0 0.00 0.00 0.00 69 1018.6
20260830100015 68 203 0.0 0.0 0.00 0.00 0.00 68 1018.6